This is the latest recevied weather packets stored in our database for station/object KG7FOQ-13. If no packets are shown the sender has not sent any weather packets the latest 10 day(s).
| Time | Temp. | Humidity | Pressure | Rain* | Wind** | Luminosity | Snow |
|---|---|---|---|---|---|---|---|
| 1777840034 | 22.78° C | 17% | 1011.7 hPa | 0 mm | - | - | - |
| 1777839734 | 22.78° C | 17% | 1011.8 hPa | 0 mm | - | - | - |
| 1777839433 | 23.33° C | 17% | 1011.9 hPa | 0 mm | - | - | - |
| 1777839133 | 22.78° C | 14% | 1011.9 hPa | 0 mm | - | - | - |
| 1777838870 | 23.33° C | 15% | 1012 hPa | 0 mm | - | - | - |
| 1777838832 | 23.33° C | 15% | 1012 hPa | 0 mm | - | - | - |
| 1777838532 | 22.78° C | 15% | 1012.1 hPa | 0 mm | - | - | - |
| 1777838231 | 22.78° C | 17% | 1012.1 hPa | 0 mm | - | - | - |
| 1777837931 | 22.22° C | 17% | 1012.2 hPa | 0 mm | - | - | - |
| 1777837630 | 22.22° C | 16% | 1012.3 hPa | 0 mm | - | - | - |
| 1777837330 | 22.22° C | 18% | 1012.3 hPa | 0 mm | - | - | - |
| 1777837029 | 22.78° C | 17% | 1012.5 hPa | 0 mm | - | - | - |
| 1777836729 | 22.22° C | 20% | 1012.6 hPa | 0 mm | - | - | - |
| 1777836428 | 21.67° C | 20% | 1012.7 hPa | 0 mm | - | - | - |
| 1777836128 | 21.11° C | 23% | 1012.8 hPa | 0 mm | - | - | - |
| 1777835827 | 21.11° C | 22% | 1012.8 hPa | 0 mm | - | - | - |
| 1777834926 | 21.11° C | 25% | 1013 hPa | 0 mm | - | - | - |
| 1777834625 | 21.67° C | 27% | 1013.2 hPa | 0 mm | - | - | - |
| 1777834325 | 21.11° C | 25% | 1013.3 hPa | 0 mm | - | - | - |
| 1777834024 | 20.56° C | 27% | 1013.4 hPa | 0 mm | - | - | - |
| 1777833723 | 21.11° C | 26% | 1013.4 hPa | 0 mm | - | - | - |
| 1777833422 | 21.11° C | 27% | 1013.4 hPa | 0 mm | - | - | - |
| 1777833121 | 20.56° C | 29% | 1013.6 hPa | 0 mm | - | - | - |
| 1777832821 | 21.11° C | 27% | 1013.6 hPa | 0 mm | - | - | - |
| 1777832521 | 20.56° C | 29% | 1013.7 hPa | 0 mm | - | - | - |
* Rain latest hour (hover to see other rain measurements)
** Current wind speed in m/s (hover to see current wind gust speed)